Location: Chiroubles
(46.1812°N, 4.6660°E)
Time: 01:10:06
(UTC+00:00)

SL-16 R/B - Pass Details

Date: 15 August 2020
Orbit: 843 x 845 km, 71.0° (Epoch: 27 September)

Event Time Altitude Azimuth Distance (km) Brightness Sun altitude
Rises 19:53:43 0° 337° (NNW) 3,416 6.4 -10.7°
Reaches altitude 10° 19:56:18 10° 343° (NNW) 2,477 5.4 -11.1°
Maximum altitude 20:01:45 45° 56° (ENE) 1,139 2.7 -11.9°
Enters shadow 20:05:50 17° 123° (ESE) 2,010 3.5 -12.4°
